Regional Weather Roundup
Issued by NWS Goodland, KS

Home | Current Version | Previous Version | Text Only | Print | Product List | Glossary Off
Versions: 1 2 3 4 5 6 7 8 9 10 11 12 13 14 15 16 17 18 19 20 21 22 23 24 25 26 27 28 29 30 31 32 33 34 35 36 37 38 39 40 41 42 43 44 45 46 47 48 49 50

000
ASUS43 KGLD 252208
RWRGLD

GOODLAND FORECAST AREA HOURLY WEATHER ROUNDUP
NATIONAL WEATHER SERVICE GOODLAND KS
400 PM MDT WED MAY 25 2016

...OFFICIAL OBSERVATIONS...

CITY           SKY/WX    TMP DP  RH WIND       PRES   REMARKS
GOODLAND KS    SUNNY     79  51  37 N3        29.90F
HILL CITY KS   CLOUDY    74  62  66 CALM      29.86F
IMPERIAL NEB   SUNNY     76  48  37 SE5       29.89F
MCCOOK NEB     SUNNY     80  51  36 S3        29.86S
AKRON CO       MOSUNNY   72  43  35 SE8       29.94F
BURLINGTON CO  MOSUNNY   77  44  30 S8        29.92F
LIMON CO       PTSUNNY   73  39  29 SE10      29.95F
$$

...UNOFFICIAL OBSERVATIONS...

CITY           SKY/WX    TMP DP  RH WIND       PRES   REMARKS
GOVE KS          N/A     78  32  18 MISG        N/A
LENORA KS        N/A     73  32  22 MISG        N/A
SHARON SPRINGS   N/A     82  47  29 SW5G14      N/A
TRIBUNE KS     MOSUNNY   82  48  30 S8        29.92
KIT CARSON CO    N/A     79  43  27 CALM        N/A
YUMA CO          N/A     75  53  45 SE6         N/A
$$




USA.gov is the U.S. government's official web portal to all federal, state and local government web resources and services.